NOAA 16 DEB, 41529

Orbit data source: Space-Track

NOAA 16 DEB, 41529 is space debris in SSO originally from a launch on Thu, 21 Sep 2000 UTC launched from the Air Force Western Test Range (AFWTR). Debris objects in space refer to the collection of defunct objects orbiting the Earth. Examples of debris include non-operational satellites, rocket bodies, and fragments generated from explosions, collisions, or faulty payload assembly.

Loading next visibility...
Identifier
41529, 2000-055ND
Orbit
SSO
Country
Flag of USUS
Related business
Manufacturer
Unknown
Mission
Spacecraft
Bus & Motor
Unknown
Mass
Unknown
Launch date (UTC)
2000-09-21 (25 years ago)
Launch vehicle
Unknown
Launch site
Air Force Western Test Range (AFWTR)
Object type
Payload
Rocket body
Debris
Shape & HBR
Unknown shape, 0.1 m
Radar Cross Section
Small (<0.1 m²)

Expand to show TLE details & history
Last TLE update: 17 hours ago

TLE from 17 hours ago
0 NOAA 16 DEB
1 41529U 00055ND  26071.55184909  .00003001  00000-0  15284-2 0  9994
2 41529  98.7110 102.6036 0037234 187.5675 172.4942 14.16147635512022
Epoch: 2026-03-12T13:14Z
TLE epoch observation values (Epoch: 2026-03-12T13:14:39.761Z)
Latitude
-0.00002°
Longitude
93.73783°
Altitude
867.967 km
Speed
7.405 km/s
True Right ascension
06h 50m 24s
True Declination
0° 00' 00"
Sunlit
Object was in daylight at epoch
Visualization orbit readout
Latitude
Unknown
Longitude
Unknown
Altitude
Unknown
Speed
Unknown
Apparent Right ascension
Unknown
Apparent Declination
Unknown
Sunlit
N/A
Visualization observer readout
Local Sidereal Time
10:29:51
Azimuth
Unknown
Elevation
Unknown
Doppler factor
Unknown
Orbital elements
Apogee altitude
862.434 km
Perigee altitude
808.715 km
Semi-major axis
7,213.711 km
Eccentricity
0.00372
Inclination
98.711°
RAAN
102.6036°
Arg. of periapsis
187.5675°
True anomaly
172.54968°
Mean anomaly
172.4942°
Eccentric anomaly
172.52196°
Mean motion
3.54246 °/min
Orbital period
101.62 mins
BSTAR
0.0015284
Loading maneuver chart data...
Computing Atmospheric mass density...
Loading historical data...
Loading historical data...
Loading historical data...
Loading historical data...
Loading historical data...
Loading historical data...
Loading historical data...

Documentation

Showing up to 5 results
|